Tracking 29892 objects as of 21-Nov-2024
HD Live streaming from Space Station
objects crossing your sky now

TITAN 3C TRANSTAGE DEB

Track TITAN 3C TRANSTAGE DEB now!
10-day predictions


NORAD ID: 1915
Int'l Code: 1965-082FZ
Perigee: 687.5 km
Apogee: 728.6 km
Inclination: 31.9 °
Period: 98.8 minutes
Semi major axis: 7079 km
RCS: 0.0556 m2 (small)
Launch date: October 15, 1965
Source: United States (US)
Launch site: AIR FORCE EASTERN TEST RANGE (AFETR)

Note: This is SATELLITE DEBRIS
Your satellite tracking list
Your tracking list is empty




NASA's NSSDC Master Catalog

Two Line Element Set (TLE):
1  1915U 65082FZ  24325.59591355  .00001170  00000-0  24220-3 0  9997
2  1915  31.8771  71.3054 0028989 136.6287 223.6639 14.57610038132422
Source of the keplerian elements: AFSPC